Simultaneous Nadir Overpasses (SNOs) Predictions

Prediction of SNOs between AQUA and GOES-15 Satellite Orbit:

Table of predicted SNOs for the next 14.0 days since TLE Epoch: 4/8/2023
Index Date Time (AQUA) AQUA Lat,Lon GOES-15 Lat,Lon Distance(km) Time Diff (sec)
1 04/08/2023 10:32:07 0.35,-131.28 0.15,-130.18 124.74 80
2 04/10/2023 10:18:24 -0.53,-127.96 0.15,-131.18 365.45 80
3 04/10/2023 22:39:25 -0.48,-133.07 -0.14,-131.40 189.42 80
4 04/12/2023 22:25:41 0.39,-129.74 -0.15,-132.38 300.23 80
5 04/13/2023 10:46:33 0.60,-134.81 0.14,-132.68 242.21 80
6 04/15/2023 10:32:49 -0.32,-131.49 0.15,-133.66 247.24 80
7 04/15/2023 22:53:49 -0.71,-136.58 -0.14,-133.87 307.89 80
8 04/17/2023 22:40:04 0.21,-133.26 -0.15,-134.85 181.93 80
9 04/18/2023 11:00:54 0.82,-138.32 0.14,-135.15 360.39 80
10 04/20/2023 10:47:08 -0.09,-134.99 0.14,-136.13 129.18 80
11 04/20/2023 23:08:08 -0.91,-140.09 -0.13,-136.34 426.11 80
